TimeCST,TemperatureF,Dew PointF,Humidity,Sea Level PressureIn,VisibilityMPH,Wind Direction,Wind SpeedMPH,Gust SpeedMPH,PrecipitationIn,Events,Conditions,WindDirDegrees,DateUTC
12:00 AM,82,78,84,29.75,10,ESE,4.6,,,,Haze,120,2014-04-29 06:00:00
3:00 AM,82,78,85,29.72,10,ESE,3.5,,,,Haze,120,2014-04-29 09:00:00
5:00 AM,82.4,78.8,89,29.73,6.2,ESE,4.6,-,N/A,,Scattered Clouds,110,2014-04-29 11:00:00
6:00 AM,82,78,83,29.75,4,East,4.6,,,,Partly Cloudy,100,2014-04-29 12:00:00
6:00 AM,82.4,77.0,84,29.74,3.7,East,4.6,-,N/A,,Scattered Clouds,100,2014-04-29 12:00:00
7:00 AM,84.2,78.8,84,29.76,3.7,ESE,5.8,-,N/A,,Scattered Clouds,110,2014-04-29 13:00:00
8:00 AM,84.2,78.8,84,29.76,3.7,ESE,8.1,-,N/A,,Mostly Cloudy,110,2014-04-29 14:00:00
9:00 AM,86,78,72,29.77,7,ESE,8.1,,,,Haze,110,2014-04-29 15:00:00
9:00 AM,86.0,78.8,79,29.77,3.7,ESE,8.1,-,N/A,,Scattered Clouds,110,2014-04-29 15:00:00
10:00 AM,87.8,77.0,70,29.76,3.7,SE,6.9,-,N/A,,Scattered Clouds,130,2014-04-29 16:00:00
11:00 AM,89.6,78.8,70,29.75,3.7,ESE,6.9,-,N/A,,Scattered Clouds,110,2014-04-29 17:00:00
12:00 PM,89,79,65,29.74,3,SE,6.9,,,,Haze,130,2014-04-29 18:00:00
12:00 PM,-9999,78.8,N/A,29.74,3.1,SE,6.9,-,N/A,,Haze,130,2014-04-29 18:00:00
1:00 PM,89.6,78.8,70,29.72,3.1,SE,5.8,-,N/A,,Haze,130,2014-04-29 19:00:00
2:00 PM,91.4,78.8,66,29.70,3.1,East,10.4,-,N/A,,Haze,80,2014-04-29 20:00:00
3:00 PM,89.6,78.8,70,29.69,3.1,East,11.5,-,N/A,,Haze,80,2014-04-29 21:00:00
4:00 PM,87.8,78.8,75,29.68,3.1,East,9.2,-,N/A,,Haze,90,2014-04-29 22:00:00
5:00 PM,87.8,78.8,75,29.69,3.7,East,8.1,-,N/A,,Partly Cloudy,80,2014-04-29 23:00:00
6:00 PM,87,79,71,29.70,6,East,8.1,,,,Haze,100,2014-04-30 00:00:00
6:00 PM,84.2,78.8,84,29.69,3.7,East,8.1,-,N/A,,Unknown,100,2014-04-30 00:00:00
7:00 PM,84.2,78.8,84,29.73,3.7,ESE,6.9,-,N/A,,Unknown,110,2014-04-30 01:00:00
9:00 PM,83,79,83,29.75,5,ESE,4.6,,,,Haze,120,2014-04-30 03:00:00
9:00 PM,-9999,-9999,N/A,-9999,-9999.0,North,-9999.0,-,N/A,,Unknown,0,2014-04-30 03:00:00